• Em Portugal
  • Lista de países
  • Para 7 dias
  • Temperatura da água
  • Mapas de satélite
  • Mapa do tempo
  • Widgets de tempo
  • user-avatar
    Iniciar Sessão

    Previsão horária em Maslino

    Hoje, 14 Novembro, Quarta-feira

    Tempo Temperatura Precipitação Vento Pressão Humidade
    00:00 -5°C° 0 mm 8 m/s 754 mmHg 54%
    01:00 -5°C° 0 mm 8 m/s 753 mmHg 55%
    02:00 -4°C° 0 mm 7 m/s 752 mmHg 57%
    03:00 -4°C° 0.2 mm 7 m/s 751 mmHg 60%
    04:00 -6°C° 0.2 mm 7 m/s 751 mmHg 63%
    05:00 -6°C° 0.2 mm 7 m/s 750 mmHg 66%
    06:00 -6°C° 0.4 mm 7 m/s 750 mmHg 69%
    07:00 -6°C° 0.4 mm 7 m/s 750 mmHg 72%
    08:00 -6°C° 0 mm 7 m/s 750 mmHg 77%
    09:00 -5°C° 0.6 mm 6 m/s 749 mmHg 79%
    10:00 -5°C° 0.6 mm 6 m/s 749 mmHg 82%
    11:00 -5°C° 0.6 mm 6 m/s 749 mmHg 85%
    12:00 -5°C° 0.3 mm 5 m/s 749 mmHg 85%
    13:00 -5°C° 0.3 mm 5 m/s 749 mmHg 86%
    14:00 -5°C° 0.3 mm 5 m/s 749 mmHg 87%
    15:00 -4°C° 0.2 mm 4 m/s 749 mmHg 88%
    16:00 -4°C° 0.2 mm 3 m/s 750 mmHg 89%
    17:00 -4°C° 0.2 mm 3 m/s 750 mmHg 90%
    18:00 -3°C° 0.1 mm 2 m/s 750 mmHg 91%
    19:00 -3°C° 0.1 mm 2 m/s 750 mmHg 92%
    20:00 -3°C° 0.1 mm 2 m/s 751 mmHg 92%
    21:00 -3°C° 0 mm 2 m/s 751 mmHg 93%
    22:00 -1°C° 0 mm 1 m/s 751 mmHg 93%
    23:00 -1°C° 0 mm 1 m/s 752 mmHg 93%

    Amanhã, 15 Novembro, Quinta-feira

    Tempo Temperatura Precipitação Vento Pressão Humidade
    00:00 -1°C° 0 mm 1 m/s 752 mmHg 94%
    01:00 -1°C° 0 mm 1 m/s 753 mmHg 94%
    02:00 -1°C° 0 mm 1 m/s 753 mmHg 94%
    03:00 -1°C° 0 mm 1 m/s 753 mmHg 94%
    04:00 -1°C° 0 mm 1 m/s 754 mmHg 95%
    05:00 -1°C° 0 mm 1 m/s 754 mmHg 95%
    06:00 -1°C° 0 mm 1 m/s 754 mmHg 95%
    07:00 0°C° 0 mm 1 m/s 755 mmHg 95%
    08:00 0°C° 0 mm 1 m/s 755 mmHg 95%
    09:00 0°C° 0 mm 1 m/s 756 mmHg 94%
    10:00 +1°C° 0 mm 1 m/s 756 mmHg 94%
    11:00 +1°C° 0 mm 1 m/s 757 mmHg 93%
    12:00 +1°C° 0.1 mm 1 m/s 757 mmHg 93%
    13:00 +2°C° 0.1 mm 1 m/s 758 mmHg 94%
    14:00 +2°C° 0.1 mm 1 m/s 758 mmHg 94%
    15:00 +1°C° 0 mm 1 m/s 758 mmHg 95%
    16:00 +1°C° 0 mm 1 m/s 759 mmHg 95%
    17:00 +1°C° 0 mm 1 m/s 759 mmHg 95%
    18:00 +1°C° 0 mm 1 m/s 760 mmHg 95%
    19:00 +1°C° 0 mm 1 m/s 760 mmHg 95%
    20:00 -1°C° 0 mm 2 m/s 761 mmHg 95%
    21:00 -1°C° 0 mm 2 m/s 761 mmHg 95%
    22:00 +1°C° 0 mm 1 m/s 761 mmHg 94%
    23:00 +1°C° 0 mm 1 m/s 762 mmHg 94%

    Depois de amanhã, 16 Novembro, Sexta-feira

    Tempo Temperatura Precipitação Vento Pressão Humidade
    00:00 +1°C° 0 mm 1 m/s 762 mmHg 94%
    01:00 +1°C° 0 mm 1 m/s 762 mmHg 94%
    02:00 +1°C° 0 mm 1 m/s 763 mmHg 94%
    03:00 0°C° 0 mm 1 m/s 763 mmHg 94%
    04:00 0°C° 0 mm 1 m/s 763 mmHg 94%
    05:00 0°C° 0 mm 1 m/s 763 mmHg 94%
    06:00 -1°C° 0 mm 1 m/s 764 mmHg 93%
    07:00 -1°C° 0 mm 1 m/s 764 mmHg 93%
    08:00 -1°C° 0 mm 1 m/s 765 mmHg 93%
    09:00 0°C° 0 mm 1 m/s 765 mmHg 90%
    10:00 0°C° 0 mm 1 m/s 765 mmHg 87%
    11:00 +1°C° 0 mm 1 m/s 765 mmHg 85%
    12:00 +1°C° 0 mm 1 m/s 765 mmHg 85%
    13:00 +2°C° 0 mm 1 m/s 765 mmHg 85%
    14:00 +2°C° 0 mm 1 m/s 765 mmHg 85%
    15:00 +1°C° 0 mm 1 m/s 765 mmHg 86%
    16:00 0°C° 0 mm 1 m/s 765 mmHg 86%
    17:00 -1°C° 0 mm 1 m/s 765 mmHg 87%
    18:00 -1°C° 0 mm 1 m/s 766 mmHg 86%
    19:00 -1°C° 0 mm 1 m/s 766 mmHg 85%
    20:00 -2°C° 0 mm 1 m/s 766 mmHg 84%
    21:00 -2°C° 0 mm 1 m/s 766 mmHg 83%
    22:00 -2°C° 0 mm 1 m/s 766 mmHg 81%
    23:00 -2°C° 0 mm 1 m/s 766 mmHg 80%

    17 Novembro, Sábado

    Tempo Temperatura Precipitação Vento Pressão Humidade
    00:00 -2°C° 0 mm 1 m/s 766 mmHg 78%
    01:00 -3°C° 0 mm 0 m/s 766 mmHg 77%
    02:00 -3°C° 0 mm 0 m/s 766 mmHg 75%
    03:00 -3°C° 0 mm 0 m/s 766 mmHg 75%
    04:00 -3°C° 0 mm 0 m/s 765 mmHg 75%
    05:00 -3°C° 0 mm 0 m/s 765 mmHg 75%
    06:00 -2°C° 0 mm 1 m/s 765 mmHg 76%
    07:00 -2°C° 0 mm 1 m/s 765 mmHg 77%
    08:00 -2°C° 0 mm 1 m/s 765 mmHg 77%
    09:00 -1°C° 0 mm 1 m/s 765 mmHg 76%
    10:00 0°C° 0 mm 1 m/s 765 mmHg 76%
    11:00 +1°C° 0 mm 1 m/s 764 mmHg 75%
    12:00 +1°C° 0 mm 1 m/s 764 mmHg 77%
    13:00 -1°C° 0 mm 2 m/s 763 mmHg 80%
    14:00 -1°C° 0 mm 2 m/s 763 mmHg 82%
    15:00 -1°C° 0 mm 2 m/s 762 mmHg 85%
    16:00 -2°C° 0 mm 2 m/s 762 mmHg 88%
    17:00 -4°C° 0 mm 3 m/s 761 mmHg 91%
    18:00 -2°C° 0 mm 3 m/s 761 mmHg 92%
    19:00 -2°C° 0 mm 3 m/s 760 mmHg 93%
    20:00 -2°C° 0 mm 3 m/s 760 mmHg 93%
    21:00 -1°C° 0 mm 3 m/s 759 mmHg 94%
    22:00 -1°C° 0 mm 3 m/s 758 mmHg 94%
    23:00 -2°C° 0 mm 4 m/s 758 mmHg 94%

    18 Novembro, Domingo

    Tempo Temperatura Precipitação Vento Pressão Humidade
    00:00 -1°C° 0 mm 4 m/s 757 mmHg 95%
    01:00 -1°C° 0 mm 4 m/s 756 mmHg 95%
    02:00 -1°C° 0 mm 4 m/s 755 mmHg 95%
    03:00 -1°C° 0.1 mm 4 m/s 755 mmHg 95%
    04:00 -1°C° 0.1 mm 4 m/s 754 mmHg 96%
    05:00 -1°C° 0.1 mm 5 m/s 753 mmHg 96%
    06:00 -1°C° 0.1 mm 4 m/s 752 mmHg 96%
    07:00 0°C° 0.1 mm 4 m/s 752 mmHg 96%
    08:00 0°C° 0.1 mm 4 m/s 751 mmHg 96%
    09:00 0°C° 0.1 mm 4 m/s 751 mmHg 96%
    10:00 0°C° 0.1 mm 4 m/s 750 mmHg 96%
    11:00 0°C° 0.1 mm 4 m/s 750 mmHg 96%
    12:00 0°C° 0.1 mm 4 m/s 750 mmHg 95%
    13:00 0°C° 0.1 mm 4 m/s 749 mmHg 94%
    14:00 0°C° 0.1 mm 5 m/s 749 mmHg 93%
    15:00 0°C° 0.2 mm 5 m/s 749 mmHg 93%
    16:00 0°C° 0.2 mm 5 m/s 749 mmHg 92%
    17:00 0°C° 0.2 mm 5 m/s 749 mmHg 91%
    18:00 -1°C° 0.1 mm 5 m/s 748 mmHg 91%
    19:00 -1°C° 0.1 mm 5 m/s 748 mmHg 91%
    20:00 -1°C° 0.1 mm 5 m/s 748 mmHg 91%
    21:00 -1°C° 0.1 mm 5 m/s 748 mmHg 91%
    22:00 -1°C° 0.1 mm 5 m/s 748 mmHg 90%
    23:00 0°C° 0.1 mm 5 m/s 748 mmHg 90%

    19 Novembro, Segunda-feira

    Tempo Temperatura Precipitação Vento Pressão Humidade
    00:00 0°C° 0.1 mm 5 m/s 748 mmHg 89%
    01:00 0°C° 0.1 mm 5 m/s 748 mmHg 89%
    02:00 -1°C° 0.1 mm 6 m/s 748 mmHg 88%
    03:00 -1°C° 0.2 mm 6 m/s 748 mmHg 88%
    04:00 -1°C° 0.2 mm 6 m/s 748 mmHg 88%
    05:00 -1°C° 0.2 mm 6 m/s 749 mmHg 89%
    06:00 -2°C° 0.1 mm 6 m/s 749 mmHg 89%
    07:00 -2°C° 0.1 mm 6 m/s 749 mmHg 89%
    08:00 -2°C° 0.1 mm 6 m/s 750 mmHg 89%
    09:00 -1°C° 0 mm 5 m/s 750 mmHg 88%
    10:00 -1°C° 0 mm 5 m/s 750 mmHg 88%
    11:00 0°C° 0 mm 5 m/s 751 mmHg 88%
    12:00 0°C° 0.1 mm 5 m/s 751 mmHg 88%
    13:00 0°C° 0.1 mm 5 m/s 751 mmHg 87%
    14:00 0°C° 0.1 mm 5 m/s 751 mmHg 87%
    15:00 -1°C° 0.1 mm 5 m/s 751 mmHg 87%
    16:00 -1°C° 0.1 mm 5 m/s 751 mmHg 88%
    17:00 -2°C° 0.1 mm 5 m/s 751 mmHg 88%
    18:00 -2°C° 0.1 mm 5 m/s 751 mmHg 88%
    19:00 -2°C° 0.1 mm 5 m/s 752 mmHg 88%
    20:00 -2°C° 0.1 mm 5 m/s 752 mmHg 88%
    21:00 -2°C° 0.1 mm 5 m/s 752 mmHg 88%
    22:00 -2°C° 0.1 mm 5 m/s 752 mmHg 88%
    23:00 -2°C° 0.1 mm 5 m/s 753 mmHg 88%
    Mostrar mais